Location: Kalberh�ni
(46.4610°N, 7.2453°E)
Time: 05:19:06
(UTC+00:00)

Cosmos 1802 Rocket - Pass Details

Date: 27 October 2021
Orbit: 955 x 1010 km, 82.9° (Epoch: 05 December)

Event Time Altitude Azimuth Distance (km) Brightness Sun altitude
Rises 19:51:43 0° 214° (SSW) 3,622 7.1 -36.0°
Reaches altitude 10° 19:54:25 10° 223° (SW) 2,680 6.5 -36.5°
Maximum altitude 20:00:00 36° 288° (WNW) 1,481 5.3 -37.3°
Drops below altitude 10° 20:05:38 10° 354° (N) 2,709 6.6 -38.2°
Sets 20:08:24 0° 3° (N) 3,666 7.2 -38.7°
